{"data":{"norad_id":27844,"intl_designator":"2003-031E","name":"CUTE-1 (CO-55)","alt_names":[],"object_type":"PAYLOAD","status":"ACTIVE","operator":null,"country":"JPN","launch_date":"2003-06-30","launch_site_code":"PLMSC","launch_vehicle":null,"mission":null,"orbit_class":"UNKNOWN","rcs_meters":0.069,"size_class":null,"mass_kg":null,"dimensions":null,"purposes":["comms","tech_demo"],"wikipedia_slug":null,"has_3d_model":false,"image_url":null,"decayed_at":null,"tle_current":{"epoch":"2026-09-19T07:23:53.219040Z","epoch_age_seconds":121307,"freshness":"FRESH","line1":"1 27844U 03031E   26262.30825485  .00000177  00000+0  95427-4 0  9990","line2":"2 27844  98.6773 269.7000 0008369 273.0739  86.9482 14.24383016205071","mean_motion":14.24383016,"eccentricity":0.0008369,"inclination_deg":98.6773,"raan_deg":269.7,"arg_perigee_deg":273.0739,"mean_anomaly_deg":86.9482,"bstar":9.5427e-5,"rev_number":20507,"period_min":101.09640341289,"perigee_km":804.55157829694,"apogee_km":816.58403240013,"semimajor_km":7188.7048053485,"source":"CELESTRAK","updated_at":"2026-09-20T09:00:47.985538Z"}}}